Find Ekran-M

NORAD ID: 18715 Int'l Des: 1987-109 Owner: MSVYAZ Country: SU operational
HEOCIRCULAR

Live Position

Loading 3D Globe...

About Ekran-M

Description loading...

Upcoming Passes

Passes for default location (London). Set your location on the main map for personalized predictions.

Altitude History

Loading altitude history...

Two-Line Element Set

1 18715U 87109A 26110.49276291 -.00000120 00000-0 00000+0 0 9990
2 18715 13.5414 335.3233 0041567 241.4019 108.4065 0.95882806120258
Epoch: Apr 20, 2026 • Age: 14 hours

Current Status

Altitude 36960.4 km
Velocity 3.04 km/s
Sub-Earth Point -1.36°S, 70.37°W
Launch Date Dec 27, 1987
Age 38.3 years
Type other

Technical Details

Classification Payload
Mass 2100.00 kg
Dry Mass 1900.00 kg
Total Mass 2100.00 kg
Length 5.50 m
Diameter 2.50 m
Span 9.00 m
Shape Cyl + 2 Pan + Plate
Manufacturer NPOPM
Bus Type Ekran
Phase Status In Orbit
Owner/State MSVYAZ/SU

Most Searched